www.pogodaiklimat.ru

Погода и климат >> Архив погоды >> Бразилия >> Параиба >> Патос


ПОГОДА в Патосе

  • Прогноз погоды в Патосе
  • Монитор погоды в Патосе

АРХИВ ПОГОДЫ в Патосе

Время (UTC), дата Ветер
(напр.,м/с)
 
Видим.   Явления Облачность Т
(С)
Тd
(С)
f
(%)
Тe
(С)
Тes
(С)
Комфортность P
(гПа)
Po
(гПа)
Тmin
(С)
Tmax
(С)
R
(мм)
R24
(мм)
S
(см)
07 18.05 В 2
{3}
н/о н/о +24.6 +19.8 75 +30 +30 очень
душно
1012.4 982.2
08 18.05 В 2
{4}
н/о н/о +24.1 +19.9 77 +29 +29 душно 1013.1 982.8
09 18.05 В 2
{4}
н/о н/о +24.0 +20.1 79 +30 +30 очень
душно
1013.9 983.6
10 18.05 штиль 0
{3}
н/о н/о +25.0 +20.3 75 +31 +31 очень
душно
1014.4 984.2
11 18.05 ЮВ 2
{3}
н/о н/о +26.4 +20.4 70 +33 +33 очень
душно
1014.6 984.5
12 18.05 В 2
{4}
н/о н/о +28.4 +19.6 59 +34 +34 очень
душно
1014.6 984.7
13 18.05 В 2
{5}
н/о н/о +30.5 +20.1 54 +37 +37 очень
душно
1014.2 984.5
14 18.05 ЮВ 1
{4}
н/о н/о +30.7 +18.8 49 +36 +36 очень
душно
1013.4 983.8
15 18.05 ЮВ 1
{3}
н/о н/о +31.9 +18.6 45 +37 +37 очень
душно
1012.2 982.7
16 18.05 В 2
{3}
н/о н/о +32.7 +18.3 42 +37 +37 очень
душно
1011.0 981.6
17 18.05 ЮВ 1
{3}
н/о н/о +33.3 +18.3 41 +38 +38 очень
душно
1010.0 980.7
18 18.05 ЮВ 1
{3}
н/о н/о +33.2 +16.7 37 +36 +36 очень
душно
1009.4 980.1
19 18.05 Ю 1
{3}
н/о н/о +32.9 +16.4 37 +36 +36 очень
душно
1009.2 979.9
20 18.05 ЮЗ 1
{2}
н/о н/о +31.2 +18.8 48 +36 +36 очень
душно
1009.5 980.0
21 18.05 ЮЗ 1
{2}
н/о н/о +28.2 +20.2 62 +35 +35 очень
душно
1010.2 980.4
22 18.05 СВ 1
{2}
н/о н/о +27.3 +21.4 70 +35 +35 очень
душно
1011.3 981.4
23 18.05 Ю 1
{2}
н/о н/о +25.3 +21.6 80 +32 +32 очень
душно
1012.3 982.2
00 19.05 Ю 1
{2}
н/о н/о +26.0 +22.2 80 +34 +34 очень
душно
1013.2 983.1
01 19.05 В 2
{3}
н/о н/о +27.6 +19.2 60 +33 +33 очень
душно
1013.2 983.3
02 19.05 В 2
{4}
н/о н/о +26.3 +19.2 65 +32 +32 очень
душно
1013.8 983.7
03 19.05 В 2
{4}
н/о н/о +25.3 +19.8 72 +31 +31 очень
душно
1013.5 983.4
04 19.05 В 2
{4}
н/о н/о +25.0 +20.2 75 +31 +31 очень
душно
1013.3 983.1
05 19.05 В 2
{3}
н/о н/о +24.3 +20.3 78 +30 +30 очень
душно
1012.9 982.7
06 19.05 В 1
{3}
н/о н/о +23.9 +20.5 81 +30 +30 очень
душно
1012.9 982.6
07 19.05 ЮВ 1
{2}
н/о н/о +22.8 +20.4 86 +30 +30 очень
душно
1013.2 982.8
08 19.05 В 1
{2}
н/о н/о +22.3 +20.3 88 +29 +29 очень
душно
1013.5 983.1
09 19.05 В 1
{2}
н/о н/о +23.0 +20.5 86 +30 +30 очень
душно
1014.0 983.6
10 19.05 ЮВ 1
{2}
н/о н/о +25.2 +20.9 77 +32 +32 очень
душно
1014.2 984.0
11 19.05 ЮВ 1
{2}
н/о н/о +27.1 +21.2 70 +34 +34 очень
душно
1014.3 984.3
12 19.05 В 2
{3}
н/о н/о +28.5 +20.8 63 +36 +36 очень
душно
1014.6 984.7
13 19.05 ЮВ 2
{3}
н/о н/о +30.4 +20.5 55 +37 +37 очень
душно
1014.2 984.5
14 19.05 В 2
{3}
н/о н/о +32.2 +20.3 49 +39 +39 очень
душно
1013.4 983.9
15 19.05 ЮВ 2
{3}
н/о н/о +32.9 +17.8 41 +37 +37 очень
душно
1012.1 982.7
16 19.05 ЮВ 1
{3}
н/о н/о +32.7 +18.2 42 +37 +37 очень
душно
1011.0 981.6
17 19.05 С 1
{2}
н/о н/о +33.5 +18.0 40 +38 +38 очень
душно
1010.1 980.8
18 19.05 В 1
{2}
н/о н/о +31.9 +17.5 42 +36 +36 очень
душно
1009.7 980.3
19 19.05 В 3
{4}
н/о н/о +30.4 +20.8 57 +38 +38 очень
душно
1010.3 980.7
20 19.05 ЮВ 2
{4}
н/о н/о +29.2 +22.1 66 +38 +38 очень
душно
1010.7 981.0
21 19.05 ЮВ 1
{3}
н/о н/о +28.2 +21.9 69 +36 +36 очень
душно
1011.7 981.9
22 19.05 В 3
{4}
н/о н/о +27.3 +21.8 72 +35 +35 очень
душно
1012.9 983.0
23 19.05 В 1
{4}
н/о н/о +25.2 +22.9 87 +33 +33 очень
душно
1014.0 983.8
00 20.05 В 1
{3}
н/о н/о +25.4 +21.7 80 +33 +33 очень
душно
1014.5 984.3
01 20.05 В 1
{3}
н/о н/о +25.8 +21.5 77 +33 +33 очень
душно
1014.8 984.7
02 20.05 В 2
{3}
н/о н/о +24.7 +21.1 80 +31 +31 очень
душно
1014.9 984.7
03 20.05 В 2
{3}
н/о н/о +24.9 +21.2 80 +31 +31 очень
душно
1014.5 984.3
04 20.05 В 1
{3}
н/о н/о +24.7 +21.5 82 +31 +31 очень
душно
1013.7 983.5
05 20.05 В 1
{2}
н/о н/о +24.6 +21.3 82 +31 +31 очень
душно
1013.3 983.1
06 20.05 В 2
{2}
н/о н/о +24.9 +21.2 80 +31 +31 очень
душно
1012.9 982.7
07 20.05 В 1
{2}
н/о н/о +23.9 +21.1 84 +30 +30 очень
душно
1012.9 982.6
08 20.05 ЮВ 1
{3}
н/о н/о +23.6 +20.7 84 +29 +29 душно 1013.2 982.9
09 20.05 В 1
{3}
н/о н/о +23.2 +20.6 85 +31 +31 очень
душно
1013.6 983.2
10 20.05 В 2
{3}
н/о н/о +25.4 +21.0 77 +32 +32 очень
душно
1013.9 983.8
11 20.05 В 1
{3}
н/о н/о +25.5 +21.2 77 +32 +32 очень
душно
1014.8 984.6
12 20.05 ЮВ 2
{4}
н/о н/о +27.4 +20.5 66 +34 +34 очень
душно
1014.7 984.7
13 20.05 В 2
{4}
н/о н/о +29.0 +21.0 62 +36 +36 очень
душно
1014.5 984.7
14 20.05 В 2
{4}
н/о н/о +30.8 +20.4 54 +38 +38 очень
душно
1013.8 984.2
15 20.05 В 2
{4}
н/о н/о +31.2 +20.6 53 +38 +38 очень
душно
1012.7 983.2
16 20.05 ЮВ 2
{4}
н/о н/о +31.1 +19.9 51 +37 +37 очень
душно
1011.6 982.1
17 20.05 Ю 2
{4}
н/о н/о +31.6 +19.7 49 +37 +37 очень
душно
1010.5 981.1
18 20.05 ЮВ 1
{3}
н/о н/о +31.0 +20.2 53 +38 +38 очень
душно
1010.1 980.6
19 20.05 ЮВ 1
{3}
н/о н/о +29.9 +20.4 57 +37 +37 очень
душно
1010.1 980.5
20 20.05 ЮВ 1
{2}
н/о н/о +30.0 +20.4 56 +37 +37 очень
душно
1010.3 980.7
21 20.05 ЮВ 1
{2}
н/о н/о +28.6 +20.5 62 +35 +35 очень
душно
1010.6 980.9
22 20.05 ЮВ 1
{1}
н/о н/о +27.6 +20.7 66 +34 +34 очень
душно
1011.4 981.5
23 20.05 штиль 0
{1}
н/о н/о +26.9 +21.7 73 +34 +34 очень
душно
1011.9 982.0
00 21.05 ЮВ 1
{3}
н/о н/о +26.8 +21.6 73 +34 +34 очень
душно
1012.9 982.9
01 21.05 В 2
{3}
н/о н/о +27.5 +20.2 64 +34 +34 очень
душно
1013.2 983.3
02 21.05 штиль 0
{3}
н/о н/о +26.5 +20.8 71 +33 +33 очень
душно
1013.4 983.4
03 21.05 В 2
{3}
н/о н/о +26.8 +21.0 71 +34 +34 очень
душно
1013.2 983.2
04 21.05 В 2
{3}
н/о н/о +26.5 +21.7 75 +34 +34 очень
душно
1012.8 982.8
05 21.05 В 2
{3}
н/о н/о +24.5 +22.1 86 +32 +32 очень
душно
1012.6 982.4
06 21.05 В 2
{3}
н/о н/о +24.6 +20.8 79 +31 +31 очень
душно
1012.5 982.3
07 21.05 ЮВ 1
{3}
н/о н/о +24.0 +21.7 87 +31 +31 очень
душно
1012.7 982.4
08 21.05 штиль 0
{2}
н/о н/о +22.6 +21.6 94 +30 +30 очень
душно
1013.3 982.9 0.8
09 21.05 штиль 0
{1}
н/о н/о +22.6 +21.9 96 +30 +30 очень
душно
1013.3 982.9 0.2
10 21.05 штиль 0
{2}
н/о н/о +23.5 +22.2 92 +30 +30 очень
душно
1013.6 983.3
11 21.05 штиль 0
{1}
н/о н/о +25.6 +21.8 80 +33 +33 очень
душно
1013.8 983.7
12 21.05 В 1
{2}
н/о н/о +27.2 +22.0 73 +35 +35 очень
душно
1014.1 984.1
13 21.05 Ю 2
{4}
н/о н/о +27.4 +21.5 70 +35 +35 очень
душно
1014.1 984.1
14 21.05 ЮВ 2
{4}
н/о н/о +29.2 +22.3 66 +38 +38 очень
душно
1013.2 983.4
15 21.05 ЮВ 1
{3}
н/о н/о +30.3 +22.3 62 +39 +39 очень
душно
1011.9 982.3
16 21.05 В 1
{5}
н/о н/о +25.9 +24.4 91 +36 +36 очень
душно
1011.8 981.8 2
17 21.05 ЮЗ 1
{2}
н/о н/о +25.9 +24.7 93 +37 +37 очень
душно
1011.0 981.0 1
18 21.05 ЮЗ 1
{1}
н/о н/о +28.1 +24.2 79 +39 +39 очень
душно
1010.2 980.4
19 21.05 ЮВ 2
{4}
н/о н/о +23.9 +23.3 96 +32 +32 очень
душно
1011.1 980.9 8
20 21.05 ЮВ 1
{4}
н/о н/о +24.9 +23.3 91 +33 +33 очень
душно
1011.3 981.2 0.2
21 21.05 штиль 0
{2}
н/о н/о +25.1 +24.0 94 +35 +35 очень
душно
1011.6 981.5
22 21.05 В 2
{3}
н/о н/о +24.0 +22.1 89 +31 +31 очень
душно
1012.7 982.4
23 21.05 В 2
{4}
н/о н/о +23.8 +21.6 87 +30 +30 очень
душно
1012.9 982.6
00 22.05 В 2
{4}
н/о н/о +23.8 +21.5 87 +30 +30 очень
душно
1013.8 983.5
01 22.05 В 1
{4}
н/о н/о +24.0 +21.6 86 +31 +31 очень
душно
1014.1 983.8
02 22.05 ЮВ 1
{3}
н/о н/о +24.3 +21.7 85 +31 +31 очень
душно
1014.1 983.8
03 22.05 СВ 1
{3}
н/о н/о +24.4 +22.1 87 +32 +32 очень
душно
1014.1 983.8
04 22.05 В 2
{2}
н/о н/о +24.2 +21.7 86 +31 +31 очень
душно
1013.9 983.6
05 22.05 В 1
{2}
н/о н/о +23.5 +21.4 88 +30 +30 очень
душно
1013.4 983.1
06 22.05 В 1
{2}
н/о н/о +23.2 +21.3 89 +31 +31 очень
душно
1013.2 982.9
07 22.05 ЮВ 1
{2}
н/о н/о +23.0 +21.3 90 +31 +31 очень
душно
1013.3 982.9
08 22.05 ЮВ 1
{2}
н/о н/о +22.4 +21.4 94 +29 +29 очень
душно
1013.4 983.0
09 22.05 штиль 0
{2}
н/о н/о +23.7 +22.0 90 +31 +31 очень
душно
1013.7 983.4
10 22.05 ЮВ 1
{2}
н/о н/о +25.7 +22.2 81 +33 +33 очень
душно
1013.7 983.6
11 22.05 В 2
{3}
н/о н/о +27.0 +22.0 74 +35 +35 очень
душно
1014.6 984.6
12 22.05 ЮВ 2
{4}
н/о н/о +27.8 +21.7 69 +36 +36 очень
душно
1014.8 984.9
13 22.05 ЮВ 2
{4}
н/о н/о +29.6 +20.7 59 +37 +37 очень
душно
1014.5 984.7
14 22.05 ЮВ 2
{4}
н/о н/о +30.4 +19.7 53 +37 +37 очень
душно
1013.5 983.9
15 22.05 ЮВ 2
{4}
н/о н/о +31.4 +18.9 47 +36 +36 очень
душно
1012.5 983.0
16 22.05 ЮВ 2
{4}
н/о н/о +32.2 +19.6 47 +38 +38 очень
душно
1011.6 982.2
17 22.05 ЮВ 2
{4}
н/о н/о +32.3 +19.2 46 +38 +38 очень
душно
1010.3 980.9
18 22.05 ЮВ 2
{4}
н/о н/о +32.6 +18.4 43 +37 +37 очень
душно
1009.7 980.4
19 22.05 Ю 1
{3}
н/о н/о +31.7 +20.0 50 +38 +38 очень
душно
1009.5 980.1
20 22.05 Ю 1
{2}
н/о н/о +29.9 +21.0 59 +37 +37 очень
душно
1009.8 980.2
21 22.05 В 1
{2}
н/о н/о +28.0 +20.5 64 +35 +35 очень
душно
1010.6 980.8
22 22.05 штиль 0
{2}
н/о н/о +26.3 +21.2 74 +33 +33 очень
душно
1011.6 981.6
23 22.05 ЮВ 1
{1}
н/о н/о +26.3 +21.2 74 +33 +33 очень
душно
1012.0 982.0
00 23.05 В 2
{3}
н/о н/о +27.0 +20.1 66 +33 +33 очень
душно
1012.8 982.8
01 23.05 В 3
{4}
н/о н/о +27.0 +21.5 72 +34 +34 очень
душно
1013.4 983.4
02 23.05 В 2
{4}
н/о н/о +26.2 +21.8 77 +34 +34 очень
душно
1013.7 983.6
03 23.05 В 2
{4}
н/о н/о +25.7 +21.8 79 +33 +33 очень
душно
1013.8 983.7
04 23.05 В 2
{4}
н/о н/о +25.2 +21.7 81 +32 +32 очень
душно
1013.5 983.3
05 23.05 В 2
{4}
н/о н/о +24.3 +21.6 85 +31 +31 очень
душно
1013.2 983.0
06 23.05 В 1
{2}
н/о н/о +23.7 +21.4 87 +30 +30 очень
душно
1013.1 982.8
07 23.05 штиль 0
{2}
н/о н/о +22.8 +21.5 92 +30 +30 очень
душно
1013.1 982.7
08 23.05 штиль 0
{1}
н/о н/о +22.0 +21.2 95 +28 +28 душно 1013.7 983.2
09 23.05 штиль 0
{1}
н/о н/о +22.3 +21.1 93 +29 +29 очень
душно
1014.0 983.5
10 23.05 ЮЗ 1
{1}
н/о н/о +24.4 +21.5 84 +31 +31 очень
душно
1014.5 984.2
11 23.05 ЮВ 1
{2}
н/о н/о +26.3 +21.1 73 +33 +33 очень
душно
1015.2 985.1
12 23.05 ЮВ 1
{2}
н/о н/о +28.7 +21.3 64 +36 +36 очень
душно
1014.9 985.0
13 23.05 ЮВ 1
{3}
н/о н/о +29.2 +20.5 59 +36 +36 очень
душно
1014.4 984.6
14 23.05 ЮВ 1
{3}
н/о н/о +31.0 +20.2 53 +38 +38 очень
душно
1013.3 983.7
15 23.05 ЮВ 2
{3}
н/о н/о +32.3 +19.9 48 +38 +38 очень
душно
1012.2 982.8
16 23.05 ЮВ 2
{3}
н/о н/о +32.8 +19.3 45 +38 +38 очень
душно
1011.1 981.8
17 23.05 Ю 2
{3}
н/о н/о +33.0 +18.6 43 +38 +38 очень
душно
1010.2 980.9
18 23.05 ЮВ 2
{3}
н/о н/о +33.1 +19.1 44 +38 +38 очень
душно
1009.7 980.4
19 23.05 ЮВ 2
{3}
н/о н/о +32.7 +18.8 44 +38 +38 очень
душно
1009.7 980.4
20 23.05 штиль 0
{3}
н/о н/о +31.5 +20.4 52 +38 +38 очень
душно
1010.3 980.9
21 23.05 ЮВ 1
{2}
н/о н/о +28.8 +20.3 60 +35 +35 очень
душно
1011.1 981.4
22 23.05 Ю 1
{1}
н/о н/о +27.0 +21.2 71 +34 +34 очень
душно
1011.9 982.0
23 23.05 штиль 0
{2}
н/о н/о +27.2 +21.6 71 +35 +35 очень
душно
1012.6 982.7
00 24.05 В 1
{2}
н/о н/о +26.9 +20.5 68 +33 +33 очень
душно
1013.4 983.4
01 24.05 В 2
{4}
н/о н/о +27.0 +20.9 69 +34 +34 очень
душно
1013.6 983.6
02 24.05 В 3
{4}
н/о н/о +26.9 +21.1 71 +34 +34 очень
душно
1013.6 983.6
03 24.05 В 2
{4}
н/о н/о +25.7 +21.1 76 +32 +32 очень
душно
1013.4 983.3
04 24.05 В 2
{3}
н/о н/о +25.0 +20.9 78 +31 +31 очень
душно
1013.1 982.9
05 24.05 В 1
{3}
н/о н/о +24.1 +21.2 84 +30 +30 очень
душно
1012.7 982.5
06 24.05 В 1
{2}
н/о н/о +23.4 +21.0 86 +31 +31 очень
душно
1012.6 982.3
07 24.05 В 1
{2}
н/о н/о +23.3 +20.8 86 +31 +31 очень
душно
1012.9 982.6
08 24.05 В 1
{2}
н/о н/о +22.4 +20.5 89 +29 +29 очень
душно
1013.3 982.9
09 24.05 В 1
{2}
н/о н/о +22.9 +20.6 87 +30 +30 очень
душно
1013.9 983.5
10 24.05 В 1
{2}
н/о н/о +25.1 +20.3 75 +31 +31 очень
душно
1014.4 984.2
11 24.05 Ю 1
{2}
н/о н/о +27.0 +20.6 68 +34 +34 очень
душно
1015.0 985.0
12 24.05 В 2
{4}
н/о н/о +28.4 +19.9 60 +35 +35 очень
душно
1015.0 985.1
13 24.05 ЮВ 1
{3}
н/о н/о +30.1 +20.2 55 +37 +37 очень
душно
1014.3 984.6
14 24.05 ЮВ 2
{4}
н/о н/о +31.0 +19.9 52 +37 +37 очень
душно
1013.5 983.9
15 24.05 В 1
{4}
н/о н/о +32.5 +20.0 48 +39 +39 очень
душно
1012.3 982.9
16 24.05 ЮВ 1
{3}
н/о н/о +33.3 +19.2 43 +38 +38 очень
душно
1011.2 981.9
17 24.05 Ю 1
{3}
н/о н/о +33.3 +18.1 41 +38 +38 очень
душно
1010.4 981.1
18 24.05 Ю 1
{2}
н/о н/о +33.1 +18.7 43 +38 +38 очень
душно
1010.1 980.8
19 24.05 Ю 1
{2}
н/о н/о +32.7 +18.6 43 +37 +37 очень
душно
1010.2 980.9
20 24.05 ЮЗ 1
{2}
н/о н/о +31.8 +18.8 46 +37 +37 очень
душно
1010.4 981.0
21 24.05 Ю 1
{1}
н/о н/о +29.3 +20.2 58 +36 +36 очень
душно
1011.0 981.3
22 24.05 ЮЗ 1
{1}
н/о н/о +26.5 +21.5 74 +34 +34 очень
душно
1012.0 982.0
23 24.05 ЮВ 1
{2}
н/о н/о +25.3 +21.1 78 +32 +32 очень
душно
1012.8 982.7
00 25.05 В 2
{4}
н/о н/о +28.0 +20.3 63 +34 +34 очень
душно
1013.7 983.8
01 25.05 В 2
{4}
н/о н/о +27.6 +21.3 69 +35 +35 очень
душно
1013.9 984.0
02 25.05 В 2
{4}
н/о н/о +27.2 +21.4 71 +35 +35 очень
душно
1014.3 984.3
03 25.05 В 3
{4}
н/о н/о +26.5 +21.2 73 +34 +34 очень
душно
1014.1 984.1
04 25.05 В 2
{4}
н/о н/о +25.7 +21.0 75 +32 +32 очень
душно
1013.6 983.5
05 25.05 В 2
{3}
н/о н/о +24.7 +20.8 79 +31 +31 очень
душно
1012.9 982.7
06 25.05 В 2
{3}
н/о н/о +23.8 +20.3 81 +29 +29 душно 1013.2 982.9

 

Местоположение метеостанции Патос (Параиба, Бразилия): широта -7.08 долгота -37.27 высота над уровнем моря 282 м.

В архиве по умолчанию представлена погода в Патосе за последнюю неделю. Архивные данные за месяц целиком и за предыдущие месяцы, начиная с января 2011 года, Вы можете получить, выбрав интересующий диапазон дат из раскрывающегося списка и нажав кнопку "Ввод!".


*Определитесь, кто Вы:
робот инопланетянин человек

Внимание! Время в таблицах - всемирное. Для получения местного времени необходимо прибавить поправку, которая равна -3 ч.

Смотрите также архив погоды в соседних городах и на ближайших метеорологических станциях:

Погода в Патосе (Параиба, Бразилия) (7 км)
Погода в Кайко (Риу-Гранди-ду-Норти, Бразилия) (72 км)
Погода в Монтейро (Параиба, Бразилия) (93 км)
Погода в Сан-Гонкало (Параиба, Бразилия) (118 км)
Погода в Кабасейрасе (Параиба, Бразилия) (118 км)
Погода в Триунфу (, Бразилия) (128 км)
Погода в Серра-Тальяде (, Бразилия) (149 км)
Погода в Арковерди (, Бразилия) (152 км)
Погода в Кампина-Гранде (Параиба, Бразилия) (152 км)
Погода в Кампина-Гранде (Параиба, Бразилия) (154 км)

Пояснения к столбцам:

Ветер - указаны скорость ветра в м/с - средняя за 10 мин, порывы в срок и между сроками (в фигурных скобках) и направление, откуда дует ветер: С - северный, СВ - северо-восточный, В - восточный, ЮВ - юго-восточный, Ю - южный, ЮЗ - юго-западный, З - западный, СЗ - северо-западный.
Видимость - горизонтальная дальность видимости в метрах или километрах. При видимости от 1 до 10 км при отсутствии осадков обычно наблюдается дымка, при ухудшении видимости до 1 км и менее - туман. В сухую погоду видимость может ухудшаться дымом, пылью или мглою.
Явления - указаны атмосферные явления, наблюдавшиеся в срок или в последний час перед сроком; фигурными скобками обозначены явления, наблюдавшиеся между сроками (за 1-3 часа до срока); квадратными скобками обозначены град или гололедные отложения с указанием их диаметра в мм.
Облачность - указаны через наклонную черту общая и нижняя облачность в баллах и высота нижней границы облаков в метрах; квадратными скобками обозначены формы облаков: Ci - перистые, Cs - перисто-слоистые, Cc - перисто-кучевые, Ac - высококучевые, As - высокослоистые, Sc - слоисто-кучевые, Ns - слоисто-дождевые, Cu - кучевые, Cb - кучево-дождевые. Подробнее классификацию облаков см. в Атласе облаков (PDF).
T - Температура воздуха - температура, измеренная на высоте 2 м над землей.
Td - Температура точки росы - температура, при понижении до которой содержащийся в воздухе водяной пар достигнет насыщения.
f - Относительная влажность воздуха - влажноcть воздуха, измеренная на высоте 2 м над землей.
Te - Эффективная температура - температура, которую ощущает одетый по сезону человек в тени. Характеристика душности погоды. При расчете учитывается влияние влажности воздуха и скорости ветра на теплоощущения человека.
Tes - Эффективная температура на солнце - температура, которую ощущает человек, с поправкой на солнечный нагрев. Характеристика знойности погоды. Зависит от высоты солнца над горизонтом, облачности и скорости ветра. Ночью, в пасмурную погоду, а также при ветре 12 м/с и более поправка равна нулю.
P - Атмосферное давление - приведенное к уровню моря атмосферное давление.
Po - Атмосферное давление - измеренное на уровне метеостанции атмосферное давление.
Tmin - Минимальная температура - минимум температуры воздуха на высоте 2 м над землей.
Tmax - Максимальная температура - максимум температуры воздуха на высоте 2 м над землей.
R - Количество осадков - Количество выпавших осадков за период времени, мм. При наведении курсора мыши на число - период времени, за который выпало указанное количество осадков.
R24 - Количество осадков - Количество выпавших осадков за 24 часа, мм.
S - Снежный покров - Высота снежного покрова, см. При наведении курсора мыши на число - состояние снежного покрова и степень покрытия местности в баллах.